Weather in Pribrezhnyy

Russia / Saratov Oblast     51°30′50″N   46°13′31″E
temp.,
°C
wind,
m/s
gust,
m/s
humid.,
%
clouds,
%
prec.,
mm/h
press.,
hPa
HPBL,
m
1 july, fri
fri101:00+16nw226040 0.0 101130
04:00+14wsw226849 0.0 101016
07:00+15wnw2373100 0.9 1009194
10:00+15ne4477100 1.4 1008409
13:00+14nne7880100 2.4 1009824
16:00+15ne6774100 5.2 10091052
19:00+14n577648 1.6 1010874
22:00+11n578836 2.0 1010281
2 july, sat
sat201:00+10nnw479364 0.0 1010266
04:00+9nw4791100 0.0 1009265
07:00+11nnw348936 0.0 1009254
10:00+15nne567963 0.7 1009830
13:00+16nne787989 1.3 1009917
16:00+18ne9127898 3.9 10081066
19:00+17nne81575100 1.3 1007721
22:00+17nne11197882 2.9 1006800
3 july, sun
sun301:00+15nne91790100 3.1 1007988
04:00+15nne61291100 4.9 1008579
07:00+14n7128964 1.6 1008564
10:00+17nne5108160 1.9 1009493
13:00+18nne71376100 1.8 1009611
16:00+22nne810596 2.4 10091224
19:00+21nne58655 0.1 1009587
22:00+17n34799 0.2 101150
4 july, mon
mon401:00+16nnw4783100 0.0 1011111
04:00+15nnw4782100 0.0 1011145
07:00+16n5108562 0.0 1012435
10:00+20nne68600 0.0 1013959
13:00+23nne794634 0.0 10131857
16:00+23nne710415 0.0 10131954
19:00+20ene596176 0.0 1014424
22:00+17n33723 0.0 101622
5 july, tue
tue501:00+15n357610 0.0 101670
04:00+14n35812 0.0 1017102
07:00+16n35755 0.0 1018197
10:00+21n34575 0.0 1019667
13:00+23nnw23465 0.0 10181582
16:00+24nw2344100 0.0 10181619
19:00+24w22515 0.0 1017136
22:00+18sw33614 0.0 101833